Corpus Christi, TX

10:36 AM CDT on June 25, 2018 (GMT -0500)
Corpus Christi International

Weather History for KCRP - June, 2018

Change the Weather History Date:

Thursday, June 14, 2018

  Actual Average Record
Temperature  
Mean Temperature 84 °F 82 °F  
Max Temperature 94 °F 91 °F 106 °F (1998)
Min Temperature 73 °F 74 °F 59 °F (1903)
Degree Days  
Heating Degree Days 0 0  
Month to date heating degree days 0 0  
Since 1 June heating degree days 0 0  
Since 1 July heating degree days 871 898  
Cooling Degree Days 19 17  
Month to date cooling degree days 281 233  
Year to date cooling degree days 1273 1074  
Since 1 June cooling degree days 281 233  
Growing Degree Days 33 (Base 50)    
Moisture  
Dew Point 74 °F    
Average Humidity 76    
Maximum Humidity 100    
Minimum Humidity 52    
Precipitation  
Precipitation 0.00 in 0.11 in 1.37 in (1974)
Month to date precipitation T 1.50  
Year to date precipitation 4.68 11.77  
Snow  
Snow 0.00 in 0.00 in 0.00 in (2002)
Month to date snowfall 0.0 0.0  
Since 1 June snowfall 0.0 0.0  
Since 1 July snowfall 1.0 0.2  
Snow Depth 0.00 in    
Sea Level Pressure  
Sea Level Pressure 29.97 in    
Wind  
Wind Speed 11 mph (SE)    
Max Wind Speed 21 mph    
Max Gust Speed 26 mph    
Visibility 10 miles    
Events      
T = Trace of Precipitation, MM = Missing Value Source: NWS Daily Summary

Daily Weather History Graph

Daily Weather History Graph

Search for Another Location

Airport or City:

Astronomy

Jun. 14, 2018 Rise Set
Actual Time 6:33 AM CDT 8:27 PM CDT
Civil Twilight 6:07 AM CDT 8:53 PM CDT
Nautical Twilight 5:34 AM CDT 9:25 PM CDT
Astronomical Twilight 5:00 AM CDT 9:59 PM CDT
Moon 7:28 AM CDT (6/14) 9:33 PM CDT (6/14)
Length of Visible Light 14h 46m
Length of Day
13h 53m
New Moon, 1% of the Moon is Illuminated
Jun 14
New Moon
Jun 20
First Quarter
Jun 27
Full
Jul 6
Last Quarter
Jul 12
New

Hourly Weather History & Observations

Time (CDT) Temp. Heat Index Dew Point Humidity Pressure Visibility Wind Dir Wind Speed Gust Speed Precip Events Conditions
12:51 AM 78.1 °F - 75.9 °F 93% 29.99 in 10.0 mi SSE 5.8 mph - N/A   Partly Cloudy
1:51 AM 75.9 °F - 75.0 °F 97% 29.98 in 10.0 mi SSE 5.8 mph - N/A   Partly Cloudy
2:51 AM 75.0 °F - 75.0 °F 100% 29.98 in 10.0 mi South 4.6 mph - N/A   Partly Cloudy
3:51 AM 73.9 °F - 73.9 °F 100% 29.97 in 10.0 mi SE 4.6 mph - N/A   Partly Cloudy
4:51 AM 73.9 °F - 73.9 °F 100% 29.97 in 10.0 mi SE 5.8 mph - N/A   Partly Cloudy
5:51 AM 73.9 °F - 73.9 °F 100% 29.97 in 10.0 mi SE 3.5 mph - N/A   Partly Cloudy
6:51 AM 75.0 °F - 73.9 °F 96% 29.98 in 10.0 mi ESE 3.5 mph - N/A   Partly Cloudy
7:51 AM 80.1 °F 85.8 °F 77.0 °F 90% 29.99 in 10.0 mi SE 3.5 mph - N/A   Partly Cloudy
8:44 AM 82.9 °F 91.8 °F 77.0 °F 82% 30.01 in 10.0 mi SSE 10.4 mph - N/A   Mostly Cloudy
8:51 AM 82.0 °F 90.2 °F 77.0 °F 85% 30.01 in 10.0 mi SSE 10.4 mph - N/A   Mostly Cloudy
9:18 AM 82.9 °F 90.2 °F 75.0 °F 77% 30.01 in 10.0 mi SSE 15.0 mph - N/A   Scattered Clouds
9:51 AM 86.0 °F 93.8 °F 73.9 °F 67% 30.01 in 10.0 mi SSE 11.5 mph - N/A   Scattered Clouds
10:51 AM 87.1 °F 94.5 °F 73.0 °F 63% 30.01 in 10.0 mi SSE 13.8 mph - N/A   Mostly Cloudy
11:51 AM 90.0 °F 97.9 °F 73.0 °F 57% 30.00 in 10.0 mi South 11.5 mph - N/A   Mostly Cloudy
12:51 PM 91.9 °F 98.4 °F 71.1 °F 50% 29.99 in 10.0 mi SSE 17.3 mph 20.7 mph N/A   Scattered Clouds
1:51 PM 91.9 °F 98.4 °F 71.1 °F 50% 29.97 in 10.0 mi SE 10.4 mph 20.7 mph N/A   Scattered Clouds
2:51 PM 91.9 °F 100.7 °F 73.0 °F 54% 29.95 in 10.0 mi SE 15.0 mph 23.0 mph N/A   Scattered Clouds
3:51 PM 91.9 °F 99.5 °F 72.0 °F 52% 29.93 in 10.0 mi ESE 17.3 mph 25.3 mph N/A   Scattered Clouds
4:51 PM 90.0 °F 97.9 °F 73.0 °F 57% 29.93 in 10.0 mi ESE 15.0 mph - N/A   Scattered Clouds
5:51 PM 88.0 °F 97.5 °F 75.0 °F 65% 29.92 in 10.0 mi ESE 17.3 mph 25.3 mph N/A   Scattered Clouds
6:51 PM 87.1 °F 94.5 °F 73.0 °F 63% 29.91 in 10.0 mi ESE 17.3 mph - N/A   Scattered Clouds
7:51 PM 84.9 °F 92.1 °F 73.9 °F 69% 29.91 in 10.0 mi ESE 15.0 mph 21.9 mph N/A   Partly Cloudy
8:51 PM 82.9 °F 90.2 °F 75.0 °F 77% 29.91 in 10.0 mi SE 15.0 mph - N/A   Partly Cloudy
9:51 PM 82.0 °F 88.6 °F 75.0 °F 79% 29.92 in 10.0 mi SE 13.8 mph - N/A   Scattered Clouds
10:51 PM 81.0 °F 87.9 °F 77.0 °F 88% 29.94 in 10.0 mi SE 12.7 mph - N/A   Partly Cloudy
11:51 PM 81.0 °F 87.3 °F 75.9 °F 85% 29.94 in 10.0 mi SSE 11.5 mph - N/A   Partly Cloudy